[[{"header":{"parameterUnit":"m.s-1","parameterCategory":1,"la1":30.2991,"la2":30.254,"lo1":-89.0895,"lo2":-89.0444,"dy":0.0017,"dx":0.0017,"nx":28,"ny":28,"refTime":"2024-05-19T21:00:00:Z","depth":0,"parameterNumber":2,"parameterNumberName":"U-component_of_WINDS"},"data":[0,0,0,0,0,0,0,0,0,0,0,0,0,0,0,0,0,0,0,0,0,0,0,0,0,0,0,0,0,0,0,0,0,0,0,0,0,0,0,0,0,0,0,0,0,0,0,0,0,0,0,0,0,0,0,0,0,0,-1.4665,-1.4664,0,-1.458,-1.4579,-1.4578,-1.4454,-1.4452,-1.445,-1.4448,-1.4362,-1.4362,-1.4361,0,0,0,0,0,0,0,0,0,0,0,0,0,-1.4723,-1.4723,-1.4665,-1.4664,-1.4663,-1.458,-1.4579,-1.4577,-1.4454,-1.4452,-1.4449,-1.4447,-1.4362,-1.4362,-1.4361,0,0,0,0,0,0,0,0,0,0,0,0,0,-1.4674,-1.4723,-1.4665,-1.4592,-1.4584,-1.458,-1.4579,-1.4577,-1.4455,-1.4452,-1.4449,-1.4446,-1.4362,-1.4362,-1.4361,-1.4423,0,0,-1.436,-1.436,0,0,0,0,0,0,0,0,-1.4677,-1.4672,-1.4604,-1.4597,-1.4588,-1.4524,-1.4567,-1.4525,-1.4456,-1.4504,-1.4448,-1.4444,-1.4419,-1.4413,-1.4404,-1.4419,-1.4415,-1.436,-1.436,-1.4359,-1.4359,0,0,0,0,0,0,0,-1.4681,-1.4675,-1.4631,-1.4603,-1.4593,-1.4563,-1.4553,-1.4559,-1.448,-1.45,-1.449,-1.4482,-1.4414,-1.4405,-1.4401,-1.4414,-1.436,-1.4359,-1.4359,-1.4359,-1.4475,-1.4478,0,0,0,0,0,0,-1.4695,-1.4679,-1.4634,-1.4629,-1.4626,-1.4565,-1.4553,-1.4548,-1.448,-1.4467,-1.4485,-1.4477,-1.4407,-1.4402,-1.4398,-1.4466,-1.4359,-1.4359,-1.4359,-1.4472,-1.4476,-1.4479,0,0,0,0,0,0,-1.4696,-1.4692,-1.4637,-1.4651,-1.4642,-1.4567,-1.4563,-1.4548,-1.4539,-1.4469,-1.4454,-1.449,-1.4405,-1.4399,-1.4417,-1.4461,-1.4359,-1.4358,-1.4468,-1.4473,-1.4477,-1.4603,0,0,0,0,0,0,-1.4699,-1.4693,-1.4716,-1.4653,-1.4642,-1.4659,-1.4565,-1.4549,-1.4539,-1.4527,-1.447,-1.4458,-1.4402,-1.4419,-1.4417,-1.4459,-1.4358,-1.4463,-1.447,-1.4476,-1.4595,-1.4612,-1.4626,0,0,0,0,0,-1.4701,-1.4755,-1.4718,-1.4713,-1.4668,-1.4661,-1.4655,-1.4589,-1.4543,-1.4565,-1.4519,-1.4459,-1.4457,-1.4422,-1.4419,-1.4461,-1.446,-1.4468,-1.4475,-1.4588,-1.4608,-1.4626,0,0,0,0,0,0,-1.4826,-1.4745,-1.4703,-1.4738,-1.4707,-1.4641,-1.4666,-1.4613,-1.4596,-1.4586,-1.4505,-1.4493,-1.4523,-1.4493,-1.4456,-1.4517,-1.4449,-1.4457,-1.4536,-1.4555,-1.4571,-1.4578,-1.4358,0,0,0,0,0,-1.4857,-1.4858,-1.4787,-1.4825,-1.4812,-1.4742,-1.4737,-1.4689,-1.4654,-1.4641,-1.4597,-1.4566,-1.4558,-1.4555,-1.4543,-1.4589,-1.4576,-1.4617,-1.4633,-1.4646,-1.4654,-1.4677,-1.4695,-1.4504,-1.4504,-1.4504,0,0,-1.4922,-1.4878,-1.4884,-1.4849,-1.482,-1.4823,-1.4732,-1.4739,-1.4741,-1.4642,-1.4657,-1.4624,-1.4584,-1.4618,-1.463,-1.4594,-1.4703,-1.4656,-1.4667,-1.4667,-1.4686,-1.4705,-1.4721,-1.4509,-1.4508,-1.4507,0,0,-1.5042,-1.5009,-1.5037,-1.5009,-1.4966,-1.4919,-1.4926,-1.4867,-1.4841,-1.4855,-1.4781,-1.4782,-1.477,-1.4745,-1.4731,-1.4841,-1.4786,-1.484,-1.4923,-1.4946,-1.4961,-1.4974,-1.5015,-1.503,-1.4847,-1.4848,-1.4848,0,-1.5129,-1.513,-1.5058,-1.507,-1.5057,-1.4966,-1.4994,-1.4971,-1.4927,-1.4921,-1.4881,-1.4864,-1.483,-1.4857,-1.4884,-1.4875,-1.4881,-1.4847,-1.4965,-1.4977,-1.4988,-1.5026,-1.5041,-1.4855,-1.4854,-1.4853,-1.4853,0,-1.5239,-1.5242,-1.5269,-1.5228,-1.5218,-1.5239,-1.5169,-1.5168,-1.5121,-1.5079,-1.5094,-1.5051,-1.503,-1.5032,-1.4986,-1.5052,-1.5031,-1.498,-1.491,-1.5015,-1.5049,-1.5063,-1.4865,-1.4862,-1.486,-1.4858,0,0,-1.5437,-1.5355,-1.5367,-1.5347,-1.5293,-1.5293,-1.5309,-1.5288,-1.5289,-1.5261,-1.5273,-1.5265,-1.5216,-1.52,-1.515,-1.5171,-1.5262,-1.5116,-1.5114,-1.5146,-1.5334,-1.5374,-1.5392,-1.5225,-1.5227,-1.5229,-1.5337,0,-1.5547,-1.5569,-1.5505,-1.5544,-1.5545,-1.5459,-1.5473,-1.5442,-1.5403,-1.5398,-1.5355,-1.5351,-1.5287,-1.5277,-1.5293,-1.5248,-1.5299,-1.5239,-1.5236,-1.5237,-1.525,-1.5409,-1.5452,-1.5556,-1.535,-1.5352,-1.5354,0,-1.5679,-1.5658,-1.5698,-1.5641,-1.5639,-1.5653,-1.5628,-1.5625,-1.5588,-1.5558,-1.554,-1.5482,-1.5494,-1.5427,-1.5443,-1.5403,-1.5398,-1.5376,-1.5378,-1.5376,-1.5303,-1.5413,-1.5587,-1.5604,-1.5374,-1.5372,-1.5371,0,-1.582,-1.5802,-1.5823,-1.5809,-1.5743,-1.5755,-1.5728,-1.5687,-1.5679,-1.5657,-1.5651,-1.5632,-1.5622,-1.5608,-1.5547,-1.5503,-1.557,-1.5497,-1.5547,-1.5549,-1.5566,-1.5566,-1.5743,-1.5561,-1.5561,-1.556,-1.556,0,-1.5951,-1.5979,-1.5885,-1.5899,-1.5927,-1.5853,-1.5883,-1.5848,-1.5812,-1.5817,-1.5742,-1.5748,-1.5666,-1.5664,-1.5615,-1.5637,-1.5632,-1.5609,-1.5596,-1.5616,-1.562,-1.5613,-1.5604,-1.5564,-1.5564,-1.5563,-1.5562,0,-1.6114,-1.6053,-1.607,-1.6006,-1.5991,-1.6015,-1.5961,-1.597,-1.5926,-1.5934,-1.5931,-1.5862,-1.5856,-1.5793,-1.5772,-1.574,-1.578,-1.5752,-1.5793,-1.5784,-1.5837,-1.5834,-1.6017,-1.6038,-1.5843,-1.5844,-1.5846,0,-1.6202,-1.6221,-1.616,-1.6157,-1.6134,-1.6132,-1.6122,-1.605,-1.6043,-1.6002,-1.6017,-1.6004,-1.599,-1.5984,-1.5932,-1.5916,-1.5889,-1.5954,-1.5886,-1.5906,-1.5891,-1.5891,-1.5893,-1.5969,-1.5972,-1.5974,-1.5975,0,-1.6365,-1.6334,-1.6323,-1.6302,-1.6293,-1.6274,-1.6249,-1.6252,-1.6171,-1.6168,-1.616,-1.6149,-1.6128,-1.6117,-1.6092,-1.6064,-1.6007,-1.5997,-1.6008,-1.6029,-1.6052,-1.6041,-1.5833,-1.5993,-1.5992,-1.599,-1.5989,-1.5989,-1.6493,-1.6507,-1.6466,-1.6456,-1.643,-1.6409,-1.6415,-1.6372,-1.6364,-1.6341,-1.6298,-1.6297,-1.6259,-1.6219,-1.6197,-1.6195,-1.6161,-1.6177,-1.6181,-1.6186,-1.6197,-1.6052,-1.619,-1.619,-1.6189,-1.6189,-1.6188,0,-1.6653,-1.6622,-1.6615,-1.6583,-1.6576,-1.6521,-1.6492,-1.649,-1.6489,-1.6459,-1.6446,-1.6438,-1.6426,-1.6374,-1.6356,-1.6365,-1.6339,-1.6363,-1.6362,-1.6357,-1.6228,-1.6221,-1.6385,-1.6385,-1.6385,-1.6385,-1.6385,-1.6385,-1.6736,-1.6755,-1.6719,-1.6726,-1.6694,-1.6692,-1.668,-1.666,-1.6635,-1.6629,-1.6619,-1.6584,-1.6545,-1.6524,-1.6512,-1.6496,-1.6494,-1.6528,-1.6505,-1.6385,-1.6366,-1.6348,-1.6341,-1.6528,-1.6528,-1.6634,-1.6635,-1.6635]},{"header":{"parameterUnit":"m.s-1","parameterCategory":1,"la1":30.2991,"la2":30.254,"lo1":-89.0895,"lo2":-89.0444,"dy":0.0017,"dx":0.0017,"nx":28,"ny":28,"refTime":"2024-05-19T21:00:00:Z","depth":0,"parameterNumber":3,"parameterNumberName":"V-component_of_WINDS"},"data":[0,0,0,0,0,0,0,0,0,0,0,0,0,0,0,0,0,0,0,0,0,0,0,0,0,0,0,0,0,0,0,0,0,0,0,0,0,0,0,0,0,0,0,0,0,0,0,0,0,0,0,0,0,0,0,0,0,0,-1.0994,-1.0995,0,-1.1075,-1.1076,-1.1077,-1.1103,-1.1103,-1.1103,-1.1102,-1.1182,-1.1185,-1.1187,0,0,0,0,0,0,0,0,0,0,0,0,0,-1.0858,-1.086,-1.0994,-1.0995,-1.0996,-1.1075,-1.1076,-1.1077,-1.1103,-1.1103,-1.1103,-1.1102,-1.1181,-1.1184,-1.1187,0,0,0,0,0,0,0,0,0,0,0,0,0,-1.0926,-1.0861,-1.0993,-1.1018,-1.1021,-1.1075,-1.1076,-1.1078,-1.1104,-1.1103,-1.1103,-1.1102,-1.118,-1.1184,-1.1188,-1.1221,0,0,-1.1199,-1.12,0,0,0,0,0,0,0,0,-1.0922,-1.093,-1.1014,-1.1017,-1.102,-1.1079,-1.1058,-1.1125,-1.1104,-1.1072,-1.1102,-1.1102,-1.1148,-1.1154,-1.1171,-1.1225,-1.1228,-1.1199,-1.1201,-1.1203,-1.1204,0,0,0,0,0,0,0,-1.0917,-1.0927,-1.1026,-1.1015,-1.1019,-1.1025,-1.1034,-1.107,-1.1112,-1.1075,-1.1077,-1.1087,-1.115,-1.1167,-1.1173,-1.1229,-1.1199,-1.1202,-1.1205,-1.1206,-1.1315,-1.1316,0,0,0,0,0,0,-1.0908,-1.0923,-1.1023,-1.1028,-1.0969,-1.1027,-1.1038,-1.106,-1.1112,-1.1119,-1.1087,-1.1088,-1.1161,-1.1168,-1.1176,-1.1218,-1.1203,-1.1206,-1.1209,-1.1314,-1.1315,-1.1316,0,0,0,0,0,0,-1.0905,-1.0917,-1.102,-1.0976,-1.099,-1.103,-1.1056,-1.1062,-1.108,-1.1121,-1.1128,-1.1097,-1.1161,-1.117,-1.121,-1.1221,-1.1208,-1.1211,-1.1313,-1.1314,-1.1315,-1.1303,0,0,0,0,0,0,-1.0901,-1.0916,-1.093,-1.0976,-1.0992,-1.1054,-1.1057,-1.1064,-1.1086,-1.1088,-1.1132,-1.1139,-1.1161,-1.1204,-1.1213,-1.1226,-1.1214,-1.1313,-1.1314,-1.1315,-1.1303,-1.1304,-1.1305,0,0,0,0,0,-1.0896,-1.0922,-1.093,-1.0942,-1.101,-1.1054,-1.1063,-1.1089,-1.1087,-1.1101,-1.1127,-1.1138,-1.1219,-1.1208,-1.1219,-1.1233,-1.1312,-1.1313,-1.1315,-1.1302,-1.1304,-1.1305,0,0,0,0,0,0,-1.0874,-1.0929,-1.0938,-1.098,-1.1013,-1.1059,-1.1077,-1.1089,-1.1122,-1.1122,-1.1151,-1.1161,-1.1198,-1.1219,-1.1206,-1.1268,-1.1266,-1.1269,-1.1252,-1.1254,-1.1255,-1.1249,-1.1217,0,0,0,0,0,-1.0874,-1.0907,-1.0952,-1.0984,-1.1,-1.1036,-1.1056,-1.1073,-1.1107,-1.1121,-1.115,-1.1182,-1.1215,-1.1235,-1.1268,-1.1306,-1.1316,-1.1321,-1.1322,-1.1322,-1.1325,-1.1347,-1.135,-1.1321,-1.1321,-1.1321,0,0,-1.0874,-1.0908,-1.0927,-1.0981,-1.1008,-1.104,-1.1047,-1.108,-1.1104,-1.1125,-1.1165,-1.1188,-1.1225,-1.1264,-1.1283,-1.1283,-1.1335,-1.1324,-1.1324,-1.1327,-1.1349,-1.1352,-1.1354,-1.1322,-1.1322,-1.1322,0,0,-1.0891,-1.092,-1.0951,-1.0978,-1.102,-1.1043,-1.105,-1.1095,-1.1111,-1.1152,-1.1169,-1.1197,-1.1252,-1.1279,-1.1299,-1.1327,-1.1337,-1.1336,-1.134,-1.1361,-1.1364,-1.1366,-1.1376,-1.1379,-1.1339,-1.1339,-1.1339,0,-1.0886,-1.0936,-1.0964,-1.0997,-1.102,-1.1043,-1.1073,-1.1098,-1.1148,-1.1163,-1.1162,-1.1233,-1.126,-1.1306,-1.1312,-1.1328,-1.1337,-1.1331,-1.1361,-1.1364,-1.1366,-1.1376,-1.1379,-1.1338,-1.1338,-1.1338,-1.1338,0,-1.0927,-1.0961,-1.0981,-1.103,-1.1055,-1.1086,-1.1119,-1.1141,-1.1156,-1.1179,-1.122,-1.1253,-1.1292,-1.1305,-1.1319,-1.1352,-1.1351,-1.1356,-1.1354,-1.1368,-1.1377,-1.1381,-1.1338,-1.1338,-1.1338,-1.1338,0,0,-1.0931,-1.0997,-1.1003,-1.1026,-1.1074,-1.11,-1.1132,-1.1172,-1.1191,-1.1224,-1.1251,-1.1298,-1.1303,-1.1326,-1.1344,-1.1363,-1.1382,-1.1365,-1.1366,-1.1367,-1.1421,-1.1417,-1.1421,-1.139,-1.1391,-1.1391,-1.1418,0,-1.0954,-1.1014,-1.1041,-1.1089,-1.112,-1.1142,-1.117,-1.1202,-1.1225,-1.1254,-1.1279,-1.1312,-1.1316,-1.133,-1.1349,-1.1376,-1.1393,-1.1374,-1.1415,-1.1416,-1.1404,-1.1426,-1.1422,-1.1445,-1.1421,-1.1422,-1.1423,0,-1.0989,-1.1024,-1.1075,-1.1119,-1.1134,-1.1159,-1.1198,-1.1226,-1.1262,-1.1277,-1.1304,-1.1321,-1.1355,-1.1352,-1.1398,-1.1385,-1.1403,-1.1418,-1.142,-1.1424,-1.142,-1.143,-1.1453,-1.1456,-1.1429,-1.1428,-1.1428,0,-1.0987,-1.1046,-1.1085,-1.1103,-1.1156,-1.1173,-1.1196,-1.1232,-1.1255,-1.1288,-1.1303,-1.134,-1.136,-1.1387,-1.1414,-1.1409,-1.1458,-1.1457,-1.1471,-1.147,-1.148,-1.1479,-1.1505,-1.1492,-1.1492,-1.1492,-1.1491,0,-1.1009,-1.1039,-1.1085,-1.1108,-1.1143,-1.1173,-1.1206,-1.123,-1.1262,-1.129,-1.1311,-1.1336,-1.137,-1.1399,-1.142,-1.1455,-1.1464,-1.1477,-1.1482,-1.1475,-1.1473,-1.1487,-1.1486,-1.1493,-1.1492,-1.1492,-1.1492,0,-1.1012,-1.1044,-1.1087,-1.1135,-1.1147,-1.117,-1.121,-1.1233,-1.1257,-1.1293,-1.1302,-1.134,-1.1376,-1.1405,-1.1451,-1.1465,-1.1502,-1.1508,-1.149,-1.1493,-1.1505,-1.1504,-1.1541,-1.1548,-1.153,-1.153,-1.153,0,-1.1024,-1.1049,-1.1099,-1.112,-1.1142,-1.1176,-1.1199,-1.123,-1.1253,-1.1297,-1.1315,-1.1353,-1.1384,-1.1441,-1.1471,-1.1507,-1.1514,-1.1524,-1.1519,-1.1511,-1.1514,-1.1512,-1.1514,-1.1525,-1.1525,-1.1525,-1.1525,0,-1.1043,-1.1057,-1.1091,-1.1131,-1.1158,-1.119,-1.1223,-1.1239,-1.1275,-1.13,-1.1338,-1.1363,-1.1411,-1.1448,-1.1487,-1.151,-1.1523,-1.1526,-1.1532,-1.1524,-1.1513,-1.1519,-1.1492,-1.1525,-1.1525,-1.1525,-1.1525,-1.1525,-1.1051,-1.1073,-1.1112,-1.1149,-1.1177,-1.1207,-1.1232,-1.1259,-1.1292,-1.1335,-1.1351,-1.1389,-1.1425,-1.1479,-1.1502,-1.1532,-1.1533,-1.154,-1.1542,-1.1544,-1.1543,-1.1509,-1.1539,-1.1539,-1.1539,-1.1539,-1.1539,0,-1.107,-1.1096,-1.113,-1.1176,-1.1205,-1.1216,-1.1253,-1.1276,-1.131,-1.1343,-1.1375,-1.1418,-1.1454,-1.1488,-1.1526,-1.1543,-1.155,-1.1552,-1.1551,-1.1556,-1.1539,-1.1531,-1.1546,-1.1546,-1.1546,-1.1546,-1.1546,-1.1546,-1.1083,-1.1122,-1.1141,-1.1194,-1.122,-1.1259,-1.1279,-1.1307,-1.1334,-1.1382,-1.1412,-1.1435,-1.1468,-1.1508,-1.1542,-1.1551,-1.1563,-1.1563,-1.1574,-1.1558,-1.1557,-1.1556,-1.1548,-1.1566,-1.1566,-1.1588,-1.1588,-1.1588]}]]